Temperature
7 5 5 5 6 7 7 6 6 7 7 7 6 6 6 6 6 5 5 6 6 6 7 7 7 7 7 7 7 7 7 7 7 7 7 7 7 8 8 8 8 8 8 8
5 5 6 6 6 7 6 6 6 6 7 6 6 5 5 5 5 5 5 5 6 6 6 6 6 6 6 7 6 6 6 6 6 7 6 7 7 7 7 7 7 7 7 7
6 6 7 6 6 6 6 6 6 6 6 6 5 5 5 5 5 5 5 5 5 6 6 6 6 6 6 6 6 6 6 6 6 6 6 6 6 6 6 6 7 7 7 7
5 6 6 6 6 6 5 6 6 6 5 4 5 5 5 4 4 4 4 4 5 5 5 5 5 6 6 6 6 6 6 6 6 5 5 6 6 6 6 6 6 6 6 6
5 5 6 6 6 6 5 5 5 5 4 3 3 4 4 4 4 4 4 4 5 5 5 5 5 5 6 5 5 5 5 5 5 5 5 5 5 5 5 5 5 5 6 6
5 5 5 5 5 5 5 4 4 2 2 3 3 3 4 3 4 4 4 4 4 4 5 5 5 5 5 5 5 5 5 5 5 4 4 4 5 5 5 5 5 5 5 5
4 5 5 5 5 4 4 3 3 3 3 3 3 3 4 4 3 3 3 4 4 4 4 4 4 4 4 4 4 4 4 4 4 4 4 4 4 4 4 4 4 5 4 5
3 4 4 4 4 4 3 3 3 4 3 3 3 3 3 3 3 3 4 4 4 3 4 3 4 4 4 4 4 4 4 4 4 4 4 3 3 3 3 3 4 4 4 4
3 3 4 4 4 4 3 3 3 2 2 2 2 2 3 3 2 2 2 3 3 3 3 3 3 3 3 3 3 3 3 3 3 3 3 3 3 3 3 3 3 3 3 3
3 2 3 3 4 4 3 3 1 2 2 2 2 2 3 3 2 2 1 1 2 2 2 3 3 3 3 3 3 3 3 3 3 2 2 2 2 2 2 2 2 2 2 3
2 2 2 2 2 2 2 2 1 1 1 2 2 3 3 2 2 1 1 1 2 2 2 2 2 2 2 2 2 2 2 2 2 2 2 2 2 2 2 2 2 2 2 2
2 1 1 1 1 2 2 2 1 1 1 0 1 2 2 1 1 1 1 1 1 1 1 2 2 2 2 2 2 2 2 1 1 1 1 1 1 1 1 1 1 1 1 2
1 0 1 2 2 1 1 1 0 0 -0 -1 0 2 1 -0 0 0 0 1 1 1 1 1 1 1 1 1 1 1 1 1 1 1 1 1 1 1 1 1 1 1 1 1
1 -0 1 2 2 1 0 0 -0 -0 -0 -1 0 1 1 0 -1 -1 -0 0 0 -0 -0 0 0 0 0 1 1 1 0 0 0 0 -0 0 0 0 0 0 0 0 0 0
0 -1 -1 -0 1 0 0 0 -0 -1 -1 -0 0 0 1 -0 -1 -1 -0 -0 -1 -1 -1 -1 -1 -0 -0 -0 -0 -0 -0 -0 -0 -0 -0 -0 -1 -1 -1 -1 -1 -1 -1 -0
-1 -1 -1 -1 -0 -0 -0 -0 -0 -0 -1 -1 -1 -0 -1 -1 -1 -1 -1 -2 -2 -1 -1 -1 -1 -1 -1 -1 -1 -1 -1 -1 -1 -1 -1 -1 -1 -1 -1 -1 -1 -1 -1 -1
-2 -2 -2 -1 -1 -1 -1 -1 -1 -1 -2 -2 -1 -0 -2 -2 -3 -2 -2 -2 -2 -2 -2 -2 -2 -1 -1 -1 -1 -1 -1 -1 -2 -2 -1 -2 -2 -2 -2 -2 -2 -2 -2 -2
-3 -2 -3 -2 -2 -1 -0 -2 -2 -2 -2 -3 -3 -3 -3 -3 -3 -3 -3 -3 -3 -3 -3 -3 -2 -2 -2 -2 -2 -2 -2 -2 -2 -2 -2 -2 -3 -3 -3 -3 -3 -3 -3 -2
-2 -3 -3 -3 -3 -2 -2 -3 -4 -3 -3 -4 -4 -4 -3 -4 -4 -4 -3 -3 -4 -3 -3 -3 -3 -3 -3 -3 -3 -3 -3 -3 -3 -3 -3 -3 -3 -4 -4 -4 -3 -3 -3 -3
-3 -3 -3 -3 -3 -2 -1 -3 -3 -3 -3 -4 -5 -5 -4 -5 -4 -5 -4 -4 -4 -4 -4 -4 -4 -4 -3 -3 -4 -4 -4 -4 -4 -4 -4 -4 -4 -4 -4 -4 -4 -4 -4 -4
-4 -4 -4 -3 -3 -3 -3 -4 -4 -2 -2 -4 -4 -5 -5 -6 -5 -4 -4 -4 -4 -4 -4 -4 -4 -4 -4 -4 -4 -4 -4 -4 -4 -4 -4 -5 -5 -5 -5 -5 -5 -5 -5 -5
-4 -5 -5 -5 -4 -3 -4 -5 -4 -3 -4 -4 -4 -4 -5 -5 -5 -5 -5 -5 -5 -5 -5 -5 -5 -5 -5 -5 -5 -5 -5 -5 -5 -5 -5 -5 -5 -5 -5 -5 -5 -6 -6 -6
-5 -5 -5 -4 -3 -4 -4 -4 -4 -4 -4 -4 -4 -5 -5 -6 -6 -6 -6 -6 -6 -6 -6 -6 -6 -6 -6 -6 -6 -6 -6 -6 -6 -6 -6 -6 -6 -6 -6 -6 -6 -6 -6 -7
-6 -6 -6 -6 -6 -6 -5 -5 -5 -5 -5 -5 -5 -6 -6 -6 -6 -7 -7 -7 -7 -7 -7 -7 -7 -6 -6 -6 -7 -7 -7 -7 -7 -7 -7 -7 -7 -7 -7 -7 -7 -7 -7 -7
-6 -7 -7 -6 -7 -7 -6 -6 -5 -5 -6 -6 -6 -6 -7 -7 -7 -7 -7 -7 -8 -8 -8 -7 -8 -7 -7 -7 -7 -8 -8 -8 -8 -7 -7 -7 -7 -7 -7 -7 -7 -7 -7 -8
-7 -7 -6 -5 -6 -7 -6 -6 -6 -6 -7 -7 -7 -7 -7 -8 -8 -8 -8 -8 -8 -8 -8 -8 -8 -8 -8 -8 -8 -8 -8 -9 -8 -8 -8 -8 -8 -8 -8 -8 -8 -8 -8 -8
Wind_Speed
2 3 4 7 7 4 4 4 5 5 3 3 7 10 9 5 4 5 6 5 6 6 5 3 4 4 4 3 4 4 4 3 3 3 3 3 2 2 3 4 7 8 8 8
3 3 6 3 3 3 3 3 4 4 3 2 6 9 8 6 6 6 7 7 7 5 3 4 4 5 5 5 5 5 5 4 4 3 3 2 2 2 2 3 5 6 7 8
5 3 2 4 2 2 4 5 5 4 4 2 3 6 5 4 3 3 4 5 6 6 6 5 5 5 5 5 6 5 5 5 4 3 2 2 2 1 1 1 2 4 7 7
3 3 2 3 4 4 6 5 4 3 1 3 1 5 6 4 3 5 6 5 5 4 4 4 4 5 6 7 6 6 6 5 5 5 5 5 4 3 2 2 2 3 6 7
3 2 3 4 4 4 4 2 2 2 3 3 2 4 7 2 5 7 7 6 6 5 5 5 5 6 6 5 5 5 5 5 5 5 6 6 4 3 2 1 2 2 3 5
3 1 2 3 2 3 2 3 4 3 2 4 6 5 7 5 7 6 5 5 5 4 4 4 3 2 2 3 4 4 5 5 5 6 6 6 5 4 3 3 3 3 2 3
3 3 1 1 2 1 3 4 2 3 2 7 3 5 8 6 6 6 5 5 4 4 3 3 2 2 2 3 4 5 6 6 5 6 6 6 6 6 6 5 5 4 3 3
3 5 4 2 4 5 4 6 5 5 5 5 3 7 7 4 4 3 2 2 1 2 3 4 4 3 3 3 3 5 6 5 5 6 5 5 5 4 4 4 4 5 4 4
5 5 1 2 1 5 5 4 4 4 2 4 6 6 6 3 2 1 1 1 1 2 3 3 3 3 3 3 4 5 5 5 5 5 5 5 5 5 5 4 4 4 3 3
4 4 3 1 1 1 4 5 4 4 3 5 6 6 5 5 4 3 3 3 3 3 2 2 2 2 2 3 3 3 4 5 4 4 4 4 4 5 5 5 5 5 4 4
3 3 2 1 5 7 4 4 4 4 4 5 5 7 4 6 5 5 5 4 3 3 3 3 3 2 2 2 2 1 2 3 3 3 4 4 4 4 4 5 6 5 5 4
3 3 3 6 4 3 6 7 7 5 5 5 4 8 3 3 3 3 4 4 3 3 2 2 2 2 2 2 2 2 2 3 3 3 3 4 4 4 4 5 5 5 5 5
4 4 0 3 2 1 3 5 6 4 3 5 5 8 2 2 2 3 3 4 3 2 2 2 2 2 3 3 3 3 3 3 3 3 3 3 4 4 5 5 4 4 5 5
3 4 6 8 6 4 5 6 6 5 5 7 10 10 8 6 5 4 4 4 3 2 3 3 3 4 4 4 4 4 4 3 3 3 3 4 4 5 5 4 4 4 5 5
4 4 6 8 7 5 8 9 9 10 10 10 11 11 13 9 6 6 5 4 3 3 4 4 5 5 5 4 4 4 4 3 3 4 4 5 4 3 3 3 4 4 4 4
2 3 2 5 6 6 9 11 12 12 10 11 11 14 9 5 3 4 5 4 4 5 5 6 6 6 6 6 5 4 4 4 4 5 5 4 3 3 4 4 3 4 4 4
3 3 2 5 4 3 9 10 12 8 8 8 13 12 5 4 5 6 5 4 5 6 6 6 7 6 6 6 5 5 5 4 4 4 4 4 4 4 4 4 4 4 4 4
5 4 2 2 1 7 7 3 6 8 9 9 8 6 5 5 5 4 3 3 5 5 6 6 6 6 6 5 4 4 3 3 3 4 4 4 3 4 4 4 4 4 3 4
6 5 3 3 5 9 7 3 4 6 7 6 8 8 6 4 2 4 2 2 4 5 6 6 6 6 5 4 4 3 3 3 3 4 4 4 4 4 4 4 5 4 3 4
2 3 4 4 4 8 7 2 2 2 5 4 5 6 5 1 2 5 3 4 5 5 5 5 5 4 4 4 2 2 3 3 4 4 4 3 3 4 5 5 5 3 3 4
2 2 5 6 7 8 6 2 2 3 6 1 2 3 3 3 4 4 4 5 4 5 6 5 4 4 4 4 2 2 3 4 4 4 3 3 3 4 4 4 3 3 3 3
7 5 6 5 6 9 3 4 5 5 1 0 1 1 2 3 3 4 4 4 5 5 5 5 4 4 4 3 3 3 4 4 4 3 3 3 3 2 2 2 2 3 3 3
7 8 6 8 8 4 3 4 3 1 2 1 1 2 2 2 3 4 4 4 4 4 4 4 4 5 5 4 3 4 5 4 3 3 3 3 2 2 2 2 3 3 3 3
5 3 4 5 7 5 4 2 2 1 2 2 1 1 1 3 4 4 4 4 4 4 4 4 4 4 5 6 5 4 5 4 3 3 3 3 2 2 1 2 2 3 3 4
6 5 4 7 6 4 4 4 4 2 1 1 2 1 2 3 4 4 4 4 4 4 4 3 4 4 5 5 5 5 5 4 3 3 3 3 2 2 2 2 2 3 3 4
4 6 7 8 6 5 4 2 2 2 2 2 2 2 2 2 3 3 3 4 4 4 4 4 4 5 5 5 5 5 5 4 3 3 3 3 2 2 2 2 2 3 4 5
Wind_Direction
94 101 197 210 201 203 196 208 241 250 255 224 235 253 263 257 231 221 221 218 217 223 225 208 194 179 165 162 168 174 165 158 149 154 163 165 178 176 162 150 151 150 150 149
76 224 231 194 182 221 224 236 264 290 316 252 255 262 262 246 230 224 222 225 223 223 217 209 198 183 180 182 184 180 177 170 166 171 178 176 171 181 178 155 148 155 155 155
185 228 201 165 180 218 232 216 235 263 325 324 305 290 258 262 238 235 233 230 225 217 212 214 211 204 191 193 194 190 185 176 168 149 134 123 107 83 127 178 180 170 163 162
225 258 177 177 207 192 241 233 229 249 287 277 243 276 268 248 265 250 250 243 235 227 216 214 220 222 210 205 196 190 185 179 170 158 158 157 171 190 214 205 205 188 171 169
237 219 177 204 222 192 221 237 224 221 195 278 258 234 276 238 251 254 248 241 238 221 211 215 225 226 222 205 194 192 185 184 176 172 170 170 180 192 181 185 180 194 183 177
251 233 196 213 210 181 159 55 46 51 97 258 226 206 269 224 222 243 248 239 235 219 216 227 233 239 231 201 189 186 187 190 184 180 178 179 181 176 175 196 191 201 202 193
283 270 276 139 117 60 87 93 27 346 304 251 223 215 248 235 218 222 239 237 232 216 213 224 229 243 242 214 206 196 193 196 192 187 189 190 188 186 192 197 197 196 207 212
212 259 234 199 178 182 192 158 168 210 234 276 269 236 250 234 236 231 227 223 215 218 224 227 229 229 233 229 219 209 202 205 197 195 198 195 187 192 202 206 200 202 211 216
191 241 250 199 176 155 165 193 177 154 240 266 260 273 289 254 271 287 319 348 249 243 238 238 242 234 230 236 230 213 202 203 201 201 202 199 191 194 202 209 207 208 213 212
168 232 251 254 98 198 174 159 123 154 197 255 275 263 243 235 246 265 265 265 278 279 269 266 261 257 256 250 250 213 202 206 206 205 205 207 200 198 201 204 208 210 212 207
154 189 264 233 197 197 165 175 167 168 188 201 261 264 231 211 212 223 235 245 256 261 259 264 269 274 281 294 289 235 205 205 207 213 215 207 209 206 205 212 214 211 208 204
171 156 236 243 245 208 196 193 173 185 227 211 236 268 277 220 227 229 248 261 266 258 259 267 283 304 306 288 283 268 233 219 221 217 215 213 215 212 215 222 221 213 211 207
152 142 285 315 292 232 224 210 193 175 174 200 218 261 300 333 304 271 257 266 273 275 285 297 304 290 284 276 271 269 258 232 227 216 213 215 216 217 223 229 225 218 215 215
136 173 200 219 232 202 233 227 197 184 209 225 232 255 281 281 274 274 265 263 271 271 277 282 279 278 283 277 270 268 266 244 223 213 214 220 223 224 228 227 223 220 216 215
138 213 230 252 258 235 242 238 217 218 222 227 247 252 264 260 253 258 260 258 261 276 284 280 276 274 275 274 273 268 266 257 232 216 222 229 230 227 226 225 225 224 220 220
157 217 237 265 254 249 260 248 232 232 232 239 257 266 266 272 262 267 262 249 256 272 281 283 284 285 281 269 265 267 263 256 238 223 227 229 223 222 222 222 221 221 222 222
187 175 205 260 282 305 265 238 220 222 219 214 240 255 270 273 273 265 258 248 259 272 282 285 284 279 279 274 267 258 261 259 239 235 232 228 218 221 225 221 217 220 220 219
183 181 202 254 335 244 247 210 206 221 243 233 242 258 261 257 275 286 268 254 279 290 291 290 289 287 286 280 275 267 263 249 239 244 238 232 223 224 223 216 219 222 222 221
191 179 194 203 239 269 282 241 189 205 258 238 235 254 265 278 303 296 272 271 277 283 284 285 286 288 289 283 273 271 272 256 244 252 247 239 228 225 223 224 227 224 224 231
133 155 182 196 221 244 259 240 207 145 273 250 219 251 264 243 263 276 301 314 305 302 299 300 304 308 303 298 279 265 276 274 260 263 263 250 235 226 227 229 229 228 229 236
160 186 209 221 236 261 264 241 133 188 253 266 216 244 219 208 230 271 312 318 311 313 318 322 324 320 310 311 297 273 283 281 287 292 287 264 245 238 236 231 226 219 225 232
184 187 204 198 220 253 227 139 186 229 283 241 249 248 223 238 271 294 309 313 317 324 330 335 336 330 330 330 323 303 297 305 312 309 299 278 257 249 249 227 225 217 214 222
203 199 196 200 218 247 189 203 235 225 224 244 218 258 241 255 275 288 302 306 312 317 323 331 330 331 335 339 334 310 311 319 320 323 312 305 292 268 250 223 220 216 212 216
249 223 202 245 258 257 256 263 281 275 236 244 233 254 241 257 278 285 294 302 309 316 319 325 327 326 327 332 332 317 318 323 325 319 315 312 304 291 274 244 222 218 218 220
225 187 213 251 269 289 270 243 244 253 286 301 290 263 254 262 282 283 291 298 301 309 314 316 314 311 315 325 327 326 330 333 325 315 312 310 302 284 279 263 239 235 236 228
209 197 204 237 233 218 247 230 211 209 258 269 273 293 308 275 276 291 296 301 305 311 314 315 315 314 315 322 323 327 330 329 320 318 317 309 298 288 277 263 286 276 266 262
Height
1500 1505 1507 1506 1505 1506 1507 1508 1508 1505 1502 1503 1502 1501 1499 1497 1498 1498 1497 1497 1497 1497 1498 1499 1500 1501 1502 1503 1504 1505 1506 1508 1509 1510 1511 1512 1514 1516 1517 1519 1521 1523 1524 1526
1505 1505 1502 1502 1504 1505 1506 1508 1508 1505 1502 1502 1502 1500 1496 1495 1495 1494 1494 1494 1494 1494 1495 1496 1497 1498 1498 1499 1500 1501 1502 1504 1505 1506 1508 1509 1511 1512 1514 1516 1518 1519 1521 1523
1502 1502 1500 1501 1503 1505 1505 1506 1506 1506 1503 1503 1503 1500 1496 1492 1492 1492 1492 1491 1491 1491 1491 1492 1493 1493 1494 1495 1496 1498 1499 1501 1502 1503 1505 1506 1508 1509 1511 1512 1513 1516 1517 1519
1502 1499 1499 1501 1502 1503 1505 1502 1503 1504 1508 1510 1507 1506 1494 1492 1491 1489 1488 1488 1487 1487 1488 1488 1489 1490 1490 1491 1493 1494 1496 1497 1498 1500 1501 1502 1502 1504 1505 1507 1510 1512 1513 1515
1500 1499 1499 1500 1500 1501 1502 1501 1503 1505 1508 1512 1509 1509 1495 1491 1490 1486 1484 1484 1483 1484 1485 1485 1486 1486 1487 1488 1489 1490 1492 1493 1495 1496 1497 1498 1500 1501 1502 1504 1506 1508 1509 1511
1499 1498 1498 1498 1499 1500 1501 1503 1506 1510 1513 1512 1506 1508 1494 1490 1484 1482 1480 1480 1480 1481 1481 1482 1483 1484 1484 1485 1486 1487 1488 1489 1491 1492 1493 1494 1495 1497 1498 1500 1501 1503 1504 1506
1501 1499 1497 1497 1499 1500 1503 1509 1515 1514 1517 1508 1501 1501 1490 1482 1479 1478 1478 1477 1477 1478 1478 1479 1479 1480 1480 1481 1482 1483 1484 1485 1486 1487 1489 1490 1491 1493 1494 1495 1497 1498 1500 1501
1504 1502 1497 1496 1497 1500 1503 1505 1512 1514 1515 1507 1501 1497 1484 1478 1477 1476 1476 1475 1475 1475 1476 1476 1477 1477 1478 1478 1479 1479 1480 1481 1482 1483 1484 1485 1487 1488 1490 1491 1493 1494 1495 1497
1501 1499 1496 1495 1495 1497 1501 1505 1505 1513 1515 1512 1502 1493 1482 1476 1475 1474 1474 1473 1473 1473 1473 1474 1474 1475 1475 1475 1476 1476 1476 1477 1478 1479 1480 1481 1482 1484 1486 1487 1489 1490 1491 1492
1497 1501 1496 1496 1495 1496 1498 1501 1509 1510 1512 1508 1499 1494 1482 1475 1474 1474 1473 1472 1472 1472 1472 1472 1472 1472 1472 1472 1472 1472 1473 1473 1474 1475 1476 1477 1478 1479 1482 1483 1484 1485 1486 1487
1495 1500 1499 1497 1497 1496 1499 1501 1503 1507 1508 1508 1503 1487 1473 1471 1471 1472 1471 1470 1471 1470 1470 1469 1469 1469 1469 1469 1469 1469 1469 1470 1470 1471 1472 1473 1474 1475 1477 1478 1479 1480 1481 1482
1495 1500 1502 1497 1494 1493 1494 1495 1499 1503 1505 1506 1501 1486 1470 1469 1469 1469 1469 1469 1469 1469 1468 1467 1467 1467 1466 1466 1465 1465 1466 1466 1467 1467 1468 1469 1469 1471 1472 1473 1474 1475 1476 1477
1493 1499 1501 1495 1497 1495 1494 1493 1495 1498 1502 1504 1500 1483 1471 1469 1468 1468 1468 1468 1467 1467 1466 1466 1465 1464 1463 1462 1462 1462 1462 1462 1463 1463 1464 1464 1465 1466 1467 1468 1469 1469 1470 1471
1490 1496 1496 1491 1485 1489 1492 1491 1493 1496 1498 1496 1488 1476 1471 1469 1469 1468 1467 1466 1466 1465 1464 1463 1462 1461 1459 1459 1458 1458 1458 1458 1458 1459 1459 1459 1460 1460 1461 1462 1463 1464 1464 1465
1489 1493 1492 1488 1486 1486 1485 1484 1487 1489 1487 1487 1477 1475 1467 1466 1466 1466 1465 1464 1463 1463 1462 1460 1459 1457 1456 1455 1454 1454 1454 1454 1454 1453 1453 1454 1455 1455 1456 1457 1457 1458 1459 1459
1488 1491 1491 1489 1484 1484 1483 1479 1480 1480 1480 1479 1475 1470 1464 1464 1464 1463 1462 1461 1460 1459 1458 1457 1456 1454 1452 1451 1450 1449 1449 1449 1449 1449 1448 1449 1449 1450 1451 1451 1452 1453 1453 1454
1488 1491 1492 1489 1485 1484 1481 1473 1473 1473 1472 1473 1469 1464 1462 1463 1461 1460 1459 1458 1457 1456 1455 1454 1452 1451 1449 1448 1446 1445 1445 1444 1444 1444 1444 1444 1444 1445 1446 1446 1446 1447 1447 1448
1487 1489 1491 1491 1489 1485 1469 1467 1466 1467 1466 1466 1464 1462 1461 1460 1459 1457 1457 1456 1454 1453 1452 1450 1449 1447 1445 1444 1443 1442 1441 1441 1440 1439 1439 1439 1439 1439 1440 1440 1441 1441 1442 1442
1480 1485 1490 1491 1489 1478 1468 1465 1466 1466 1464 1461 1460 1459 1458 1457 1457 1455 1454 1453 1452 1451 1449 1447 1445 1443 1441 1440 1439 1438 1437 1436 1435 1435 1435 1435 1434 1435 1435 1435 1436 1436 1436 1436
1480 1482 1487 1488 1485 1477 1463 1462 1461 1464 1463 1457 1456 1456 1455 1455 1458 1454 1452 1451 1449 1448 1446 1444 1441 1439 1438 1436 1435 1434 1433 1432 1431 1431 1431 1431 1430 1430 1430 1431 1431 1431 1431 1431
1483 1484 1484 1483 1481 1472 1463 1461 1462 1466 1459 1455 1454 1453 1453 1454 1454 1452 1450 1448 1446 1444 1442 1440 1438 1436 1435 1434 1432 1430 1429 1429 1428 1428 1427 1427 1427 1427 1427 1427 1427 1427 1427 1427
1477 1480 1483 1481 1479 1471 1459 1460 1460 1456 1453 1453 1452 1452 1451 1451 1450 1449 1447 1445 1443 1441 1439 1437 1436 1434 1433 1431 1429 1427 1427 1426 1425 1425 1424 1423 1423 1423 1422 1422 1422 1423 1423 1423
1471 1468 1468 1468 1463 1457 1455 1453 1452 1452 1451 1451 1450 1450 1450 1449 1448 1447 1445 1443 1441 1439 1437 1435 1433 1431 1430 1429 1427 1425 1424 1423 1422 1421 1420 1420 1419 1419 1418 1418 1418 1419 1419 1419
1465 1462 1463 1463 1456 1453 1452 1451 1450 1449 1449 1449 1448 1448 1447 1446 1445 1444 1442 1440 1438 1436 1434 1433 1430 1428 1427 1426 1424 1422 1421 1420 1419 1418 1417 1416 1416 1415 1415 1415 1415 1415 1415 1415
1457 1459 1459 1457 1452 1450 1448 1448 1447 1447 1446 1446 1445 1445 1444 1443 1442 1440 1439 1437 1435 1434 1432 1430 1428 1426 1424 1423 1421 1420 1418 1417 1416 1415 1414 1413 1413 1412 1411 1411 1411 1411 1411 1411
1452 1453 1454 1449 1446 1447 1445 1444 1445 1444 1444 1443 1442 1441 1441 1440 1438 1437 1436 1434 1433 1431 1429 1428 1426 1424 1422 1420 1418 1417 1415 1414 1413 1412 1411 1410 1409 1409 1408 1408 1408 1408 1408 1408